Weather WX

World > North America > United States > Mississippi

Red Banks, Mississippi Regional Weather

Lat: 34.83N, Lon: 89.58W
Wx Zone: MSZ002
Warning FLW WEATHER ALERT - (More Info. Click Here) Warning
Feedback

Red Banks, MS Regional Weather

Expires:201906161700;;167247
ASUS44 KJAN 161610
RWRMS 

MISSISSIPPI HOURLY WEATHER ROUNDUP
NATIONAL WEATHER SERVICE JACKSON MS
1100 AM CDT SUN JUN 16 2019

NOTE: "FAIR: INDICATES FEW OR NO CLOUDS BELOW 12,000 FEET WITH NO
SIGNIFICANT WEATHER AND/OR OBSTRUCTIONS TO VISIBILITY.


MSZ001>002-007>008-010>013-018>021-025>028-034>036-161700-
NORTHWEST MISSISSIPPI
  
CITY           SKY/WX    TMP DP  RH WIND       PRES   REMARKS
BATESVILLE     FAIR      84  75  74 SW10      29.96F HX  92           
CLARKSDALE     MOSUNNY   88  75  66 S13G18    29.95F HX  97           
CLEVELAND      PTSUNNY   81  75  82 SW10G17   29.96F THUNDER          
GREENWOOD      PTSUNNY   85  73  67 SW14      29.98F HX  91           
GREENVILLE     LGT RAIN  77  74  90 SE6       29.96F                  
OLIVE BRANCH   CLOUDY    81  77  89 S14G21    29.94F                  
OXFORD         PTSUNNY   82  72  69 S8        29.99F                  
TUNICA           N/A     84  72  65 SW16G23   29.94F                  
WINONA         PTSUNNY   83  72  69 S7        30.00F                  
$$


SKY/WX - Weather  TMP - Temperature  DP - Dew Point  RH - Relative Humidity
WIND - Wind Direction/Speed PRES - Barometric Pressure VSB - Visibility
WCI - Wind Chill Index E13G22 Wind - East Wind 13 mph/Gusts of 22 mph